OPS 4682 DEB, 38419

Orbit data source: Space-Track

OPS 4682 DEB, 38419 is space debris in LEO originally from a launch on Sat, 03 Apr 1965 UTC launched from the Air Force Western Test Range (AFWTR). Debris objects in space refer to the collection of defunct objects orbiting the Earth. Examples of debris include non-operational satellites, rocket bodies, and fragments generated from explosions, collisions, or faulty payload assembly.

Loading next visibility...
Identifier
38419, 1965-027DY
Orbit
LEO
Country
Flag of USUS
Related business
Manufacturer
Unknown
Mission
Spacecraft
Bus & Motor
Unknown
Mass
Unknown
Launch date (UTC)
1965-04-03 (61 years ago)
Launch vehicle
Unknown
Launch site
Air Force Western Test Range (AFWTR)
Object type
Payload
Rocket body
Debris
Shape & HBR
Unknown shape, 0.1 m
Radar Cross Section
Small (<0.1 m²)

Expand to show TLE details & history
Last TLE update: 2 days ago

TLE from 2 days ago
0 OPS 4682 DEB
1 38419U 65027DY  26133.91648978  .00000114  00000-0  37834-3 0  9996
2 38419  90.2421   5.0692 0029142 268.8892  90.8888 12.95136718296638
Epoch: 2026-05-13T21:59Z
TLE epoch observation values (Epoch: 2026-05-13T21:59:44.716Z)
Latitude
-0.0001°
Longitude
163.46324°
Altitude
1,284.489 km
Speed
7.214 km/s
True Right ascension
00h 20m 16s
True Declination
0° 00' 00"
Sunlit
Object was in daylight at epoch
Visualization orbit readout
Latitude
Unknown
Longitude
Unknown
Altitude
Unknown
Speed
Unknown
Apparent Right ascension
Unknown
Apparent Declination
Unknown
Sunlit
N/A
Visualization observer readout
Local Sidereal Time
18:37:23
Azimuth
Unknown
Elevation
Unknown
Doppler factor
Unknown
Orbital elements
Apogee altitude
1,300.648 km
Perigee altitude
1,256.023 km
Semi-major axis
7,656.472 km
Eccentricity
0.00291
Inclination
90.2421°
RAAN
5.0692°
Arg. of periapsis
268.8892°
True anomaly
91.22268°
Mean anomaly
90.8888°
Eccentric anomaly
91.05574°
Mean motion
3.23967 °/min
Orbital period
111.12 mins
BSTAR
0.00037834
Loading maneuver chart data...
Computing Atmospheric mass density...
Loading historical data...
Loading historical data...
Loading historical data...
Loading historical data...
Loading historical data...
Loading historical data...
Loading historical data...

Documentation

Showing up to 5 results
|